{"data":{"norad_id":68287,"intl_designator":"2026-055AB","name":"STARLINK-37165","alt_names":[],"object_type":"PAYLOAD","status":"ACTIVE","operator":null,"country":"US","launch_date":"2026-03-19","launch_site_code":"AFETR","launch_vehicle":null,"mission":null,"orbit_class":"UNKNOWN","rcs_meters":null,"size_class":null,"mass_kg":null,"dimensions":null,"purposes":["comms"],"wikipedia_slug":null,"has_3d_model":false,"image_url":null,"decayed_at":null,"tle_current":{"epoch":"2026-05-25T04:52:39.270720Z","epoch_age_seconds":68207,"freshness":"FRESH","line1":"1 68287U 26055AB  26145.20323230  .00020291  00000+0  60983-3 0  9994","line2":"2 68287  53.1584 322.5574 0001128  88.3094 271.8038 15.34411968 11666","mean_motion":15.34411968,"eccentricity":0.0001128,"inclination_deg":53.1584,"raan_deg":322.5574,"arg_perigee_deg":88.3094,"mean_anomaly_deg":271.8038,"bstar":0.00060983,"rev_number":1166,"period_min":93.847026094103,"perigee_km":461.8960262535,"apogee_km":463.43931178683,"semimajor_km":6840.8046690202,"source":"CELESTRAK","updated_at":"2026-05-25T13:38:21.914255Z"}}}